Regional Weather Roundup
Issued by NWS

Home | Current Version | Previous Version | Graphics & Text | Print | Product List | Glossary On
Versions: 1 2 3 4 5 6 7 8 9 10 11 12 13 14 15 16 17 18 19 20 21 22 23 24 25 26 27 28 29 30 31 32 33 34 35 36 37 38 39 40 41 42 43 44 45 46 47 48 49 50
137
ASUS43 KMPX 251810
RWRMN
WEATHER ROUNDUP FOR MINNESOTA
NATIONAL WEATHER SERVICE TWIN CITIES/CHANHASSEN MN
100 PM CDT FRI MAY 25 2018


NOTE: "FAIR" INDICATES FEW OR NO CLOUDS BELOW 12,000 FEET WITH NO
SIGNIFICANT WEATHER AND/OR OBSTRUCTIONS TO VISIBILITY. N/A MEANS
CURRENT SKY AND/OR WEATHER CONDITIONS ARE NOT AVAILABLE.

MNZ060>063-068>070-251900-
   Twin Cities Metro

CITY           SKY/WX    TMP DP  RH WIND       PRES   REMARKS
TWIN CITIES    FAIR      83  69  62 SW8       29.76F
6HR MIN TEMP:  67; 6HR MAX TEMP:  83;

ST PAUL        FAIR      82  68  62 S13       29.76F
CRYSTAL        FAIR      84  65  52 SW10      29.75F
BLAINE         MOSUNNY   84  66  54 S12       29.76F
LAKEVILLE      FAIR      81  70  69 S6        29.78S
EDEN PRAIRIE   FAIR      83  67  58 SW8       29.76F
6HR MIN TEMP:  67; 6HR MAX TEMP:  83;

SOUTH ST PAUL  FAIR      82  67  61 S9        29.77F
LAKE ELMO      FAIR      81  70  69 S12       29.79S
$$
MNZ001>005-007-008-013>017-022>024-027-028-251900-
   Northwest Minnesota

CITY           SKY/WX    TMP DP  RH WIND       PRES   REMARKS
BEMIDJI        FAIR      83  58  41 SW14G20   29.69F
HALLOCK        FAIR      84  55  37 W7        29.62S
ROSEAU         FAIR      81  61  50 W10G16    29.64F
WARROAD        FAIR      79  64  61 SW9G16    29.64S
THIEF RVR FALL FAIR      82  62  50 SW12      29.67F
CROOKSTON      FAIR      88  54  31 NW13G21   29.65F
FOSSTON        FAIR      82  54  36 W13G20    29.69F
DETROIT LAKES  FAIR      86  52  30 W9G18     29.73F
MOORHEAD       FAIR      90  48  24 NW13G22   29.68F
PARK RAPIDS    FAIR      84  56  38 W10       29.71F
MAHNOMEN       FAIR      85  56  36 W14       29.69F
$$
MNZ006-009>011-018-025>026-251900-
   North Central Minnesota

CITY           SKY/WX    TMP DP  RH WIND       PRES   REMARKS
BAUDETTE       FAIR      84  58  40 W14       29.64S
FLAG ISLAND    FAIR      73  59  60 S6        29.62F
INTL FALLS     FAIR      83  57  41 W9        29.64F
6HR MIN TEMP:  64; 6HR MAX TEMP:  83;

WASKISH          N/A     81  61  50 SW5       29.67F
BIG FORK       FAIR      82  57  42 SW8G17    29.68F
LONGVILLE      FAIR      84  57  39 SW8       29.71F
GRAND RAPIDS   FAIR      81  56  42 W7        29.72F
ORR            PTSUNNY   81  54  39 W6G16     29.64F
COOK           PTSUNNY   82  55  39 W12G18    29.68S
WALKER         FAIR      83  57  41 SW10      29.70F
$$
MNZ012-019>021-037-251900-
   Northeast Minnesota

CITY           SKY/WX    TMP DP  RH WIND       PRES   REMARKS
DULUTH         FAIR      84  63  49 W17       29.70F
6HR MIN TEMP:  68; 6HR MAX TEMP:  84;

ELY            FAIR      82  54  36 W14G24    29.67F
HIBBING        FAIR      82  59  45 W10G16    29.69F
EVELETH        FAIR      82  57  42 W14G21    29.70F
DULUTH HARBOR  FAIR      82  66  57 SW12      29.68F
TWO HARBORS    FAIR      82  66  57 S12       29.66F
SILVER BAY     FAIR      82  63  51 S14       29.66F
GRAND MARAIS     N/A     43  40  89 SW6       29.68F
$$
MNZ029>031-032-039>041-046>048-054>057-064-251900-
   West Central Minnesota

CITY           SKY/WX    TMP DP  RH WIND       PRES   REMARKS
FERGUS FALLS   FAIR      88  54  31 W10G17    29.66F
WHEATON        SUNNY     88  48  25 W9G18     29.73S
MORRIS         SUNNY     90  55  31 SW10G18   29.72F
ALEXANDRIA     FAIR      88  60  38 SW13      29.76F
ELBOW LAKE     FAIR      86  58  37 NW13      29.73F
WADENA         FAIR      82  59  44 W9G17     29.73F
GLENWOOD       FAIR      84  61  45 W7        29.76F
APPLETON       SUNNY     90  52  27 W13G25    29.74F
BENSON         SUNNY     90  54  29 NW9G18    29.75F
ORTONVILLE     SUNNY     88  55  33 NW8       29.74F
MADISON        MOSUNNY   90  54  29 W13G21    29.75F
WILLMAR        FAIR      88  54  31 W10G17    29.77F
$$
MNZ033>034-036-042>043-049>051-058-059-251900-
   Central Minnesota

CITY           SKY/WX    TMP DP  RH WIND       PRES   REMARKS
ST CLOUD       FAIR      90  53  28 W12G24    29.73F
6HR MIN TEMP:  65; 6HR MAX TEMP:  90;

SAUK CENTRE    FAIR      85  58  39 W14       29.75F
PAYNESVILLE    FAIR      85  56  36 NW10G16   29.76F
AITKIN         FAIR      82  57  42 SW7       29.71F
PINE RIVER     FAIR      79  55  44 W7        29.75F
BRAINERD       FAIR      85  58  39 W9        29.72F
STAPLES        FAIR      86  54  32 W8        29.73F
LONG PRAIRIE   FAIR      84  55  37 SW10G17   29.75F
LITTLE FALLS   FAIR      84  55  37 W8        29.74F
LITCHFIELD     FAIR      88  59  37 W8        29.75F
BUFFALO        FAIR      84  64  49 S7        29.76F
MAPLE LAKE     FAIR      88  60  39 SW6       29.76F
HUTCHINSON     FAIR      86  67  52 W5        29.78F
$$
MNZ037-044-045-052-053-251900-
   East Central Minnesota

CITY           SKY/WX    TMP DP  RH WIND       PRES   REMARKS
PRINCETON      FAIR      88  61  40 W13       29.74F
MORA           FAIR      81  63  54 SW6       29.75F
CAMBRIDGE      FAIR      88  66  48 S10       29.74F HX  90
RUSH CITY      FAIR      82  65  56 S7        29.74F
MOOSE LAKE     FAIR      81  63  54 SW8       29.70F
HINCKLEY       FAIR      81  68  65 SW9G17    29.73F
CLOQUET        FAIR      82  57  42 SW12      29.71F
MCGREGOR       FAIR      82  59  44 W8G16     29.72F
$$
MNZ071>073-080-081-089-090-097-098-251900-
   Southwest Minnesota

CITY           SKY/WX    TMP DP  RH WIND       PRES   REMARKS
MONTEVIDEO     MOSUNNY   91  54  27 NW9G16    29.75F
GRANITE FALLS  SUNNY     87  64  44 CALM      29.77F
CANBY          MOSUNNY   89  53  28 NW14G20   29.77F
MARSHALL       SUNNY     87  57  35 W9        29.77F
REDWOOD FALLS  SUNNY     87  58  37 NW6       29.76F
OLIVIA         SUNNY     84  61  45 W7        29.76F
PIPESTONE      SUNNY     88  52  29 NW6       29.81F
WINDOM           N/A     88  55  33 W6        29.79F
WORTHINGTON    SUNNY     87  63  44 S14       29.81F
JACKSON        SUNNY     84  59  42 N5        29.81F
TRACY          SUNNY     89  55  30 W12       29.78F
SLAYTON        MOSUNNY   87  49  26 W10       29.82F
$$
MNZ065>067-074>077-082>085-091>093-251900-
   South Central Minnesota

CITY           SKY/WX    TMP DP  RH WIND       PRES   REMARKS
MANKATO        FAIR      85  62  46 CALM      29.78F
NEW ULM        SUNNY     86  55  35 CALM      29.77F
ST JAMES       SUNNY     88  52  29 W7        29.79S
FAIRMONT       SUNNY     84  66  54 W7        29.80F
GLENCOE        FAIR      84  64  49 SW3       29.77F
FARIBAULT      FAIR      82  66  57 CALM      29.79F
OWATONNA       FAIR      82  66  57 S10       29.80F
WASECA         FAIR      82  63  51 S10       29.80F
ALBERT LEA     FAIR      82  63  51 SW6       29.80F
$$
MNZ078>079-086>088-094>096-251900-
   Southeast Minnesota

CITY           SKY/WX    TMP DP  RH WIND       PRES   REMARKS
ROCHESTER      FAIR      86  65  49 S20G28    29.80F
6HR MIN TEMP:  68; 6HR MAX TEMP:  86;

RED WING       PTSUNNY   81  63  54 S6        29.77F
STANTON        FAIR      82  68  63 SW8       29.77F
DODGE CENTER   FAIR      82  64  54 SW10G16   29.81F
WINONA         FAIR      81  68  65 S7        29.79F
AUSTIN         FAIR      84  64  51 SW13      29.80F
PRESTON        FAIR      83  62  49 S15       29.82F
$$
ABBREVIATIONS USED IN REMARKS
   TC - TEMPERATURES IN CELSIUS
  WCI - WIND CHILL INDEX
   HX - HEAT INDEX
  VSB - VISIBILITY
$$




USA.gov is the U.S. government's official web portal to all federal, state and local government web resources and services.